DW0108 Weather Reports


Display with metric or nautical units.
time (UTC)temp
F
wind
direction
speed
MPH
gust
MPH
rain 1hr
in
rain 24hr
in
rain mn
in
humidity
%
barometer
mb
20260904033841 83 155 2.0 6.0 0.00 0.00 0.00 71 1013.8
20260904032839 83 165 2.0 6.0 0.00 0.00 0.00 71 1013.5
20260904031831 83 156 2.0 5.0 0.00 0.00 0.00 70 1013.5
20260904030847 83 154 1.0 4.0 0.00 0.00 0.00 70 1013.5
20260904025831 84 154 2.0 3.0 0.00 0.00 0.00 70 1013.2
20260904023817 84 168 1.0 3.0 0.00 0.00 0.00 71 1012.8
20260904022819 84 158 1.0 3.0 0.00 0.00 0.00 69 1012.8
20260904021827 84 151 2.0 6.0 0.00 0.00 0.00 68 1012.8
20260904020837 85 162 1.0 3.0 0.00 0.00 0.00 66 1012.8
20260904015823 85 153 2.0 4.0 0.00 0.00 0.00 65 1012.5
20260904014832 85 147 2.0 4.0 0.00 0.00 0.00 64 1012.5
20260904013841 86 170 3.0 8.0 0.00 0.00 0.00 63 1011.8
20260904012841 86 142 2.0 6.0 0.00 0.00 0.00 61 1012.1
20260904011806 87 171 2.0 5.0 0.00 0.00 0.00 60 1011.8
20260904010830 87 170 3.0 6.0 0.00 0.00 0.00 63 1011.8
20260904005813 88 162 3.0 6.0 0.00 0.00 0.00 63 1011.5
20260904004805 88 165 2.0 6.0 0.00 0.00 0.00 62 1011.5
20260904003814 88 160 4.0 6.0 0.00 0.00 0.00 63 1011.5
20260904002824 88 156 4.0 9.0 0.00 0.00 0.00 63 1011.8
20260904001822 89 153 2.0 4.0 0.00 0.00 0.00 64 1011.5
20260903235833 90 134 2.0 4.0 0.00 0.00 0.00 63 1011.5
20260903234812 91 167 2.0 6.0 0.00 0.00 0.00 63 1011.5
20260903233831 91 134 1.0 4.0 0.00 0.00 0.00 62 1011.1
20260903231813 91 150 2.0 5.0 0.00 0.00 0.00 63 1011.1
20260903230838 92 165 1.0 3.0 0.00 0.00 0.00 63 1011.1
20260903225824 91 151 2.0 5.0 0.00 0.00 0.00 63 1011.1
20260903224842 91 142 2.0 6.0 0.00 0.00 0.00 63 1010.8
20260903223809 92 134 2.0 4.0 0.00 0.00 0.00 63 1010.8
20260903222844 91 163 1.0 3.0 0.00 0.00 0.00 64 1011.1
20260903221838 91 153 1.0 3.0 0.00 0.00 0.00 64 1011.1
20260903220847 91 146 1.0 4.0 0.00 0.00 0.00 66 1011.1
20260903214842 91 142 1.0 3.0 0.00 0.00 0.00 65 1011.1
20260903213834 92 149 2.0 5.0 0.00 0.00 0.00 64 1011.1
20260903211826 92 170 3.0 8.0 0.00 0.00 0.00 65 1011.5
20260903210812 91 141 1.0 3.0 0.00 0.00 0.00 65 1011.5
20260903204840 92 138 1.0 4.0 0.00 0.00 0.00 65 1011.5
20260903203842 90 125 2.0 5.0 0.00 0.00 0.00 67 1011.8
20260903201828 91 163 2.0 4.0 0.00 0.00 0.00 67 1011.8
20260903195847 90 155 2.0 5.0 0.00 0.00 0.00 68 1012.1
20260903194813 90 162 3.0 6.0 0.00 0.00 0.00 68 1012.1
20260903192843 89 167 3.0 6.0 0.00 0.00 0.00 70 1012.5
20260903185811 89 149 2.0 5.0 0.00 0.00 0.00 69 1013.2
20260903184813 88 162 3.0 6.0 0.00 0.00 0.00 69 1013.2
20260903183840 89 166 4.0 9.0 0.00 0.00 0.00 67 1013.2
20260903182828 90 167 2.0 6.0 0.00 0.00 0.00 67 1013.5
20260903181826 90 153 5.0 9.0 0.00 0.00 0.00 66 1013.5
20260903180813 90 167 4.0 7.0 0.00 0.00 0.00 65 1013.5
20260903175816 89 160 4.0 10.0 0.00 0.00 0.00 67 1013.8
20260903174804 91 174 3.0 8.0 0.00 0.00 0.00 65 1013.5
20260903173825 89 163 3.0 7.0 0.00 0.00 0.00 69 1013.8
20260903172837 89 166 2.0 3.0 0.00 0.00 0.00 68 1014.2
20260903171845 88 161 3.0 7.0 0.00 0.00 0.00 69 1014.2
20260903170821 88 159 3.0 6.0 0.00 0.00 0.00 70 1014.2
20260903165814 88 163 3.0 6.0 0.00 0.00 0.00 72 1014.2
20260903164818 87 160 2.0 3.0 0.00 0.00 0.00 72 1014.2
20260903162813 86 147 1.0 4.0 0.00 0.00 0.00 75 1014.2
20260903161813 85 151 1.0 4.0 0.00 0.00 0.00 76 1014.2
20260903160838 85 119 1.0 3.0 0.00 0.00 0.00 78 1013.8
20260903155819 84 164 0.0 1.0 0.00 0.00 0.00 79 1014.2
20260903153839 82 139 1.0 2.0 0.00 0.00 0.00 81 1014.2
20260903152840 82 154 2.0 4.0 0.00 0.00 0.00 81 1014.2
20260903151823 82 146 1.0 3.0 0.00 0.00 0.00 81 1014.2
20260903143843 81 139 0.0 2.0 0.00 0.00 0.00 82 1014.2
20260903142847 81 141 1.0 3.0 0.00 0.00 0.00 82 1014.2
20260903140830 80 151 0.0 3.0 0.00 0.00 0.00 83 1013.8
20260903135839 80 124 1.0 3.0 0.00 0.00 0.00 83 1014.2
20260903134824 79 158 2.0 4.0 0.00 0.00 0.00 84 1013.8
20260903133837 78 137 0.0 2.0 0.00 0.00 0.00 85 1014.2
20260903131821 78 114 0.0 1.0 0.00 0.00 0.00 86 1014.2
20260903130832 77 78 0.0 1.0 0.00 0.00 0.00 87 1013.8
20260903125831 77 59 0.0 1.0 0.00 0.00 0.00 87 1013.8
20260903124847 77 85 0.0 1.0 0.00 0.00 0.00 87 1014.2
20260903122812 77 115 0.0 1.0 0.00 0.00 0.00 86 1013.8
20260903121833 77 122 0.0 1.0 0.00 0.00 0.00 86 1013.5
20260903120831 77 106 0.0 1.0 0.00 0.00 0.00 86 1013.8
20260903114842 77 71 0.0 1.0 0.00 0.00 0.00 85 1013.5
20260903113842 77 128 0.0 1.0 0.00 0.00 0.00 85 1013.5
20260903112830 77 76 0.0 1.0 0.00 0.00 0.00 85 1013.5
20260903111817 77 99 0.0 2.0 0.00 0.00 0.00 85 1013.5
20260903110810 77 144 0.0 1.0 0.00 0.00 0.00 85 1013.5
20260903105827 77 140 0.0 2.0 0.00 0.00 0.00 85 1013.2
20260903104845 77 114 0.0 1.0 0.00 0.00 0.00 85 1013.5
20260903103840 77 85 0.0 1.0 0.00 0.00 0.00 85 1013.2
20260903102822 77 102 0.0 1.0 0.00 0.00 0.00 85 1013.5
20260903101835 77 78 0.0 1.0 0.00 0.00 0.00 85 1013.5
20260903100810 77 62 0.0 1.0 0.00 0.00 0.00 85 1013.2
20260903095816 77 57 0.0 1.0 0.00 0.00 0.00 83 1013.5
20260903094819 77 65 0.0 0.0 0.00 0.00 0.00 84 1013.2
20260903093829 77 89 0.0 0.0 0.00 0.00 0.00 84 1013.2
20260903091832 78 93 0.0 0.0 0.00 0.00 0.00 83 1012.8
20260903090823 78 49 0.0 1.0 0.00 0.00 0.00 82 1013.2
20260903085829 78 113 0.0 1.0 0.00 0.00 0.00 81 1013.2
20260903084840 78 249 0.0 0.0 0.00 0.00 0.00 81 1013.5
20260903083848 79 51 0.0 1.0 0.00 0.00 0.00 80 1013.2
20260903080849 79 119 0.0 1.0 0.00 0.00 0.00 78 1013.5
20260903075804 80 142 0.0 1.0 0.00 0.00 0.00 77 1013.5
20260903073808 80 101 0.0 1.0 0.00 0.00 0.00 76 1013.5
20260903072841 80 110 0.0 0.0 0.00 0.00 0.00 75 1013.5
20260903064821 81 158 1.0 2.0 0.00 0.00 0.00 73 1013.8
20260903063838 81 153 1.0 2.0 0.00 0.00 0.00 73 1013.8
20260903062835 82 158 1.0 4.0 0.00 0.00 0.00 72 1013.8
20260903060817 82 149 1.0 3.0 0.00 0.00 0.00 71 1013.8
20260903055833 82 147 1.0 5.0 0.00 0.00 0.00 70 1014.2
20260903054830 83 154 2.0 4.0 0.00 0.00 0.00 69 1014.2
20260903053814 83 158 2.0 3.0 0.00 0.00 0.00 69 1014.2
20260903051823 84 148 1.0 3.0 0.00 0.00 0.00 68 1013.8
20260903050820 84 156 1.0 5.0 0.00 0.00 0.00 68 1013.8
20260903045822 85 155 0.0 2.0 0.00 0.00 0.00 67 1013.8
20260903044840 85 134 0.0 1.0 0.00 0.00 0.00 67 1013.5
20260903042812 86 123 1.0 2.0 0.00 0.00 0.00 65 1013.8
20260903041833 86 146 0.0 2.0 0.00 0.00 0.00 65 1013.5
20260903040826 87 147 0.0 3.0 0.00 0.00 0.00 64 1013.8
20260903034844 87 144 0.0 2.0 0.00 0.00 0.00 61 1013.5